Flag for Canada Weather past 2 weeks in Saint-Jérôme, Quebec, Canada

Now
36 °F

Light rain. Cloudy.


Feels Like: 27 °F
Forecast: N/A
Wind: 13 mph from West

Location: Montreal / Mirabel

Current Time: Mar 30, 2015 at 7:20:41 PM

Latest Report: Mar 30, 2015 at 6:00 PM


Visibility: 15 mi

Pressure: 29.56 "Hg

Humidity: 87%

Dew point: 32 °F

Location of Saint-JérômeLocation

Historic Weather in Saint-Jérôme — Graph

°F

Saint-Jérôme temperature yesterday

Maximum temperature yesterday: 37 °F (at 4:00 PM)
Minimum temperature yesterday: 10 °F (at 6:00 AM)
Average temperature yesterday: 25 °F

Past Weeks' High & Low Weather Summary

 TemperatureHumidityPressure
High41 °F (Mar 25, 4:00 PM)100% (Mar 17, 9:00 AM)30.42 "Hg (Mar 17, 9:00 AM)
Low0 °F (Mar 23, 7:00 AM)19% (Mar 19, 6:00 PM)29.49 "Hg (Mar 30, 2:00 PM)
Average24 °F60%30.02 "Hg
* Reported Mar 15 6:00 PM — Mar 30 6:00 PM, Saint-Jérôme, Weather by CustomWeather, © 2015

Note: Actual official high and low records may vary slightly from our data, if they occured in-between our weather recording intervals... More about our weather records

Advertising

Saint-Jérôme weather history for previous 24 hours

 ConditionsComfort  
Time TempWeatherWind HumidityBarometerVisibility
6:00 PM
Mon, Mar 30
36 °FLight rain. Cloudy.13 mph87%29.56 "Hg15 mi
5:00 PM36 °FLight rain. More clouds than sun.14 mph87%29.54 "Hg12 mi
4:00 PM36 °FLight rain. More clouds than sun.13 mph93%29.52 "Hg8 mi
3:00 PM37 °FLight rain. Cloudy.12 mph87%29.50 "Hg8 mi
2:00 PM37 °FLight rain. Mostly cloudy.15 mph87%29.49 "Hg10 mi
1:00 PM36 °FLight rain. More clouds than sun.14 mph93%29.50 "Hg8 mi
12:00 PM36 °FLight snow. Cloudy.10 mph93%29.51 "Hg4 mi
11:00 AM32 °FLight snow. Mostly cloudy.8 mph93%29.52 "Hg1 mi
10:00 AM32 °FLight snow. Mostly cloudy.10 mph93%29.54 "Hg1 mi
9:00 AM32 °FLight snow. More clouds than sun.6 mph93%29.56 "Hg5 mi
8:00 AM32 °FLight snow. Dense fog.6 mph93%29.60 "Hg1 mi
7:00 AM32 °FLight snow. Overcast.7 mph80%29.62 "Hg3 mi
6:00 AM32 °FLight snow. Overcast.7 mph64%29.65 "Hg6 mi
5:00 AM34 °FLight snow. Overcast.3 mph51%29.68 "Hg25 mi
4:00 AM34 °FLight snow. Mostly cloudy.8 mph51%29.71 "Hg25 mi
3:00 AM32 °FMostly cloudy.3 mph47%29.78 "Hg25 mi
2:00 AM30 °FMostly cloudy.5 mph51%29.81 "Hg25 mi
1:00 AM28 °FPassing clouds.2 mph51%29.83 "Hg25 mi
12:00 AM28 °FPassing clouds.5 mph51%29.88 "Hg25 mi
11:00 PM
Sun, Mar 29
30 °FPassing clouds.3 mph47%29.91 "Hg25 mi
10:00 PM30 °FPartly cloudy.5 mph43%29.94 "Hg25 mi
9:00 PM32 °FPassing clouds.8 mph44%29.98 "Hg25 mi
8:00 PM32 °FBroken clouds.10 mph47%29.98 "Hg25 mi
7:00 PM34 °FBroken clouds.9 mph44%30.00 "Hg45 mi
Weather by CustomWeather, © 2015

See weather overviewHow to use our weather pages